Zurück zum Katalog

KOSMOS-2583 SUBSATELLITE

AktivMilitärPO
NORAD 63330·PAYLOAD·🇷🇺 Russia
Dieser Satellitenname wurde noch nicht durch offizielle Quellen bestätigt.

Gestartet Feb 5, 2025 von Plesetsk Cosmodrome

Loading…

Nächste Überflüge (nächste 24 Stunden)

TLE

AktuellSource: Space-Track

Epoche: Sep 14, 2026, 20:49 UTC

1 63330U 25026F   26257.86779236  .00002480  00000-0  20828-3 0  9997
2 63330  81.9964 341.4769 0012946 121.1125 239.1368 14.97902969 81471

Verfolge KOSMOS-2583 SUBSATELLITE in Echtzeit mit AllMySat

Download on the App Store